Weather History for EGBB - September, 2013

Change the Weather History Date:

Tuesday, September 24, 2013

  Actual Average (WUND) Record (WUND)
Temperature  
Mean Temperature 58 °F -  
Max Temperature 64 °F 58 °F - (-1)
Min Temperature 53 °F 44 °F - (-1)
Degree Days  
Heating Degree Days 6    
Growing Degree Days 8 (Base 50)    
Moisture  
Dew Point 57 °F    
Average Humidity 94    
Maximum Humidity 100    
Minimum Humidity 83    
Precipitation  
Precipitation 0.00 in 0.07 in - ()
Sea Level Pressure  
Sea Level Pressure 30.01 in    
Wind  
Wind Speed 5 mph ()    
Max Wind Speed 9 mph    
Max Gust Speed -    
Visibility 2.3 miles    
Events      
Averages and records for this station are not official NWS values.
T = Trace of Precipitation, MM = Missing Value Source: Averaged Metar Reports

Daily Weather History Graph

Daily Weather History Graph

Search for Another Location

Airport or City:

Trip Planner

Search our weather history database for the weather conditions in past years. The results will help you decide how hot, cold, wet, or windy it might be!

Date:

Astronomy

Sep. 24, 2013 Rise Set
Actual Time 6:56 AM BST 7:00 PM BST
Civil Twilight 6:22 AM BST 7:34 PM BST
Nautical Twilight 5:42 AM BST 8:14 PM BST
Astronomical Twilight 5:00 AM BST 8:56 PM BST
Moon 9:27 PM BST (9/24) 12:37 PM BST (9/24)
Length of Visible Light 13h 12m
Length of Day
12h 04m
Waning Gibbous, 75% of the Moon is Illuminated
Sep 24
Waning Gibbous
Sep 27
Last Quarter
Oct 5
New
Oct 12
First Quarter
Oct 19
Full

Hourly Weather History & Observations

Time (BST) Temp. Dew Point Humidity Pressure Visibility Wind Dir Wind Speed Gust Speed Precip Events Conditions
12:20 AM 59.0 °F 57.2 °F 94% 30.12 in - SSE 6.9 mph - N/A   Overcast
12:50 AM 59.0 °F 57.2 °F 94% 30.09 in - South 5.8 mph - N/A   Overcast
1:20 AM 59.0 °F 57.2 °F 94% 30.09 in 2.8 mi South 8.1 mph - N/A   Overcast
1:50 AM 59.0 °F 57.2 °F 94% 30.09 in - South 9.2 mph - N/A   Haze
2:20 AM 59.0 °F 57.2 °F 94% 30.09 in - SSW 8.1 mph - N/A   Haze
2:50 AM 59.0 °F 57.2 °F 94% 30.09 in 1.8 mi SW 4.6 mph - N/A   Overcast
3:20 AM 59.0 °F 57.2 °F 94% 30.09 in 1.7 mi Variable 3.5 mph - N/A   Overcast
3:50 AM 59.0 °F 57.2 °F 94% 30.06 in 1.4 mi SSE 3.5 mph - N/A   Overcast
4:20 AM 57.2 °F 57.2 °F 100% 30.06 in 0.7 mi SSE 3.5 mph - N/A   Overcast
4:50 AM 57.2 °F 57.2 °F 100% 30.06 in 0.9 mi SE 3.5 mph - N/A   Overcast
5:20 AM 57.2 °F 57.2 °F 100% 30.04 in 1.6 mi ESE 3.5 mph - N/A   Overcast
5:50 AM 57.2 °F 57.2 °F 100% 30.04 in 1.7 mi East 4.6 mph - N/A   Overcast
6:20 AM 59.0 °F 57.2 °F 94% 30.04 in 1.7 mi ESE 3.5 mph - N/A   Overcast
6:50 AM 59.0 °F 57.2 °F 94% 30.04 in 1.7 mi SSE 4.6 mph - N/A   Overcast
7:20 AM 59.0 °F 57.2 °F 94% 30.04 in 1.1 mi South 4.6 mph - N/A   Overcast
7:50 AM 57.2 °F 57.2 °F 100% 30.04 in 0.7 mi SSE 4.6 mph - N/A   Overcast
8:20 AM 59.0 °F 57.2 °F 94% 30.04 in 1.4 mi Variable 3.5 mph - N/A   Overcast
8:50 AM 59.0 °F 57.2 °F 94% 30.01 in 1.6 mi ESE 4.6 mph - N/A   Overcast
9:20 AM 59.0 °F 57.2 °F 94% 30.01 in 2.2 mi SSE 4.6 mph - N/A   Overcast
9:50 AM 59.0 °F 57.2 °F 94% 30.01 in 1.7 mi SSE 5.8 mph - N/A   Overcast
10:20 AM 59.0 °F 57.2 °F 94% 30.01 in 1.9 mi SSE 4.6 mph - N/A   Haze
10:50 AM 59.0 °F 57.2 °F 94% 30.01 in - SSE 5.8 mph - N/A   Haze
11:20 AM 59.0 °F 57.2 °F 94% 30.01 in - SSE 4.6 mph - N/A   Haze
11:50 AM 60.8 °F 59.0 °F 94% 30.01 in - SSE 4.6 mph - N/A   Haze
12:20 PM 60.8 °F 59.0 °F 94% 30.01 in - SSE 4.6 mph - N/A   Haze
12:50 PM 60.8 °F 59.0 °F 94% 30.01 in 3.1 mi SSW 5.8 mph - N/A   Haze
1:20 PM 62.6 °F 59.0 °F 88% 30.01 in 3.7 mi South 5.8 mph - N/A   Mostly Cloudy
1:50 PM 62.6 °F 59.0 °F 88% 30.01 in 3.7 mi SSE 4.6 mph - N/A   Mostly Cloudy
2:20 PM 62.6 °F 59.0 °F 88% 30.01 in 3.7 mi SSE 5.8 mph - N/A   Mostly Cloudy
2:50 PM 62.6 °F 59.0 °F 88% 29.98 in 3.7 mi SSE 6.9 mph - N/A   Mostly Cloudy
3:20 PM 62.6 °F 59.0 °F 88% 29.98 in 3.7 mi SSE 8.1 mph - N/A   Scattered Clouds
3:50 PM 64.4 °F 59.0 °F 83% 29.98 in 3.7 mi SSE 6.9 mph - N/A   Scattered Clouds
4:20 PM 64.4 °F 59.0 °F 83% 29.98 in 3.7 mi SSE 5.8 mph - N/A   Scattered Clouds
4:50 PM 62.6 °F 59.0 °F 88% 29.95 in 3.7 mi South 4.6 mph - N/A   Partly Cloudy
5:20 PM 62.6 °F 59.0 °F 88% 29.95 in 3.7 mi SSE 5.8 mph - N/A   Unknown
5:50 PM 62.6 °F 59.0 °F 88% 29.95 in 4.3 mi SSE 5.8 mph - N/A   Unknown
6:20 PM 62.6 °F 59.0 °F 88% 29.95 in 3.7 mi SSE 4.6 mph - N/A   Unknown
6:50 PM 60.8 °F 57.2 °F 88% 29.95 in 3.7 mi South 4.6 mph - N/A   Unknown
7:20 PM 59.0 °F 57.2 °F 94% 29.95 in - SSE 3.5 mph - N/A   Haze
7:50 PM 59.0 °F 57.2 °F 94% 29.95 in 0.6 mi SSE 3.5 mph - N/A   Haze
8:20 PM 57.2 °F 55.4 °F 94% 29.95 in - Calm Calm - N/A   Haze
8:50 PM 57.2 °F 55.4 °F 94% 29.95 in 1.9 mi Variable 2.3 mph - N/A   Mist
9:20 PM 57.2 °F 55.4 °F 94% 29.95 in 1.9 mi Calm Calm - N/A   Mist
9:50 PM 55.4 °F 55.4 °F 100% 29.95 in 1.9 mi Calm Calm - N/A   Mist
10:20 PM 55.4 °F 55.4 °F 100% 29.95 in 1.6 mi Calm Calm - N/A   Mostly Cloudy
10:50 PM 55.4 °F 55.4 °F 100% 29.95 in 1.5 mi Calm Calm - N/A   Mostly Cloudy
11:20 PM 53.6 °F 53.6 °F 100% 29.92 in 1.2 mi SE 3.5 mph - N/A   Mist
11:50 PM 53.6 °F 53.6 °F 100% 29.92 in 1.4 mi Variable 2.3 mph - N/A   Mist